User: anonymous
Location: Caltech
(34.1382°N, 118.1253°W)
Time: 14:38:22
(UTC-07:00)
Language:

Iridium 91 - Orbit

View from above orbital plane
View from above orbital plane
View from above satellite
View from above satellite

Ground track
Ground track

The orbit data is extracted from the following two-line orbital elements,

1 27372U 02005A   14212.47722609  .00000036  00000-0  56419-5 0  4247
2 27372 086.3990 007.2838 0003575 098.6689 316.7696 14.34217564660885
Epoch (UTC): 31 July 2014 11:27:12
Eccentricity: 0.0003575
inclination: 86.3990°
perigee height: 775 km
apogee height: 780 km
right ascension of ascending node: 7.2838°
argument of perigee: 98.6689°
revolutions per day: 14.34217564
mean anomaly at epoch: 316.7696°
orbit number at epoch: 66088

The dashed part of the orbit path shows where the satellite is in the earth's shadow,  

DLR